Regional Weather Roundup
Issued by NWS

Home | Current Version | Previous Version | Text Only | Print | Product List | Glossary Off
Versions: 1 2 3 4 5 6 7 8 9 10 11 12 13 14 15 16 17 18 19 20 21 22 23 24 25 26 27 28 29 30 31 32 33 34 35 36 37 38 39 40 41 42 43 44 45 46 47 48 49 50

000
ASUS43 KIND 130009
RWRIN

WEATHER ROUNDUP FOR INDIANA
NATIONAL WEATHER SERVICE INDIANAPOLIS IN
800 PM EDT SAT JUL 12 2014

NOTE: "FAIR" INDICATES FEW OR NO CLOUDS BELOW 12,000 FEET WITH NO
SIGNIFICANT WEATHER AND/OR OBSTRUCTIONS TO VISIBILITY.

* - STATION DOES NOT REPORT WEATHER SUCH AS PRECIPITATION OR FOG.

+ - STATION NOT QUALITY CONTROLLED BY THE NATIONAL WEATHER SERVICE.
    USE DATA WITH CAUTION...ESPECIALLY DEWPOINT AND RELATIVE
    HUMIDITY OBSERVATIONS.

INZ001>003-010>013-019-020-130100-
NORTHWEST INDIANA

CITY           SKY/WX    TMP DP  RH WIND       PRES   REMARKS
GARY /AIRPORT/ CLOUDY    79  73  83 SW9       29.95F
KNOX *+        CLOUDY    76  70  80 S8        29.98F
LA PORTE +     CLOUDY    76  71  84 S7        29.99S
6HR MIN TEMP:  70; 6HR MAX TEMP:  77;

MICHIGAN CITY+ CLOUDY    77  70  78 S7        29.97F
MONTICELLO +   CLOUDY    76  72  86 S8        29.99F
RENSSELAER +   PTSUNNY   77  75  94 S8        29.97F
VALPARAISO     CLOUDY    77  71  82 S10       29.97F
6HR MIN TEMP:  71; 6HR MAX TEMP:  78; 6HR PCP: TRACE;


$$

LMZ046-743>745-130100-
SOUTHERN LAKE MICHIGAN

STATION/POSITION TIME  TEMP WIND        PRES
                       AIR  DIR/SP/G
                 (UTC) (F)  (DEG/KT/KT) (MB)
BURNS HARBOR     2300   77  200/ 12/ 19 1015.2S
MICHIGAN CITY    0000   77  170/ 10/ 13   N/A

$$

INZ004-005-014>016-021>024-130100-
NORTH CENTRAL INDIANA

CITY           SKY/WX    TMP DP  RH WIND       PRES   REMARKS
GOSHEN         CLOUDY    78  69  73 S9        30.01S
6HR MIN TEMP:  74; 6HR MAX TEMP:  79; 6HR PCP: TRACE;

LOGANSPORT +   CLOUDY    73  68  83 S5        30.02F
ROCHESTER +    CLOUDY    79  70  73 S7        30.01F
SOUTH BEND     CLOUDY    77  69  76 S8        29.99F
6HR MIN TEMP:  72; 6HR MAX TEMP:  78; 6HR PCP:  0.02;

WARSAW +       CLOUDY    75  68  78 CALM      30.02F

$$

INZ006>009-017-018-025>027-130100-
NORTHEAST INDIANA

CITY           SKY/WX    TMP DP  RH WIND       PRES   REMARKS
ANGOLA *+      SUNNY     77  70  78 SW6       30.03S
AUBURN +       PTSUNNY   77  64  65 SW6       30.04S
FORT WAYNE     CLOUDY    78  67  68 SW9       30.04F
6HR MIN TEMP:  78; 6HR MAX TEMP:  80; 6HR PCP: TRACE;

HUNTINGTON +   CLOUDY    77  69  77 SW6       30.03F
6HR MIN TEMP:  75; 6HR MAX TEMP:  79;


$$

INZ028-029-035-036-043>045-051>053-130100-
WEST CENTRAL INDIANA

CITY           SKY/WX    TMP DP  RH WIND       PRES   REMARKS
GREENCASTLE +  CLOUDY    77  72  83 S5        30.04F
LAFAYETTE      CLOUDY    77  72  84 S7        29.99F
6HR MIN TEMP:  70; 6HR MAX TEMP:  78; 6HR PCP: TRACE;

TERRE HAUTE    CLOUDY    80  73  79 S12       30.03F
6HR MIN TEMP:  71; 6HR MAX TEMP:  83; 6HR PCP: TRACE;


$$

INZ030>032-037>040-046>048-054>057-064-065-130100-
CENTRAL INDIANA

CITY           SKY/WX    TMP DP  RH WIND       PRES   REMARKS
CP ATTERBURY + PTSUNNY   79  68  69 SW7       30.06F
COLUMBUS       PTSUNNY   81  72  74 SW12G17   30.05F
GREENWOOD *+   PTSUNNY   81  73  78 SW10G16   30.05
INDIANAPOLIS   CLOUDY    77  70  79 SW12      30.03F
6HR MIN TEMP:  72; 6HR MAX TEMP:  80; 6HR PCP: TRACE;

-EAGLE CREEK   CLOUDY    78  69  73 S8G17     30.03F
6HR MIN TEMP:  71; 6HR MAX TEMP:  79; 6HR PCP: TRACE;

KOKOMO *+      CLOUDY    75  70  83 S5        30.03F
MARION +       CLOUDY    75  66  72 CALM      30.04F
MT COMFORT *+  CLOUDY    79  73  83 S10       30.04S
SHELBYVILLE    PTSUNNY   81  70  69 SW9       30.04F
6HR MIN TEMP:  78; 6HR MAX TEMP:  82; 6HR PCP: TRACE;

ZIONSVILLE +   CLOUDY    78  68  70 S15       30.03F
6HR MIN TEMP:  71; 6HR MAX TEMP:  79;


$$

INZ033-034-041-042-049-050-058-059-130100-
EAST CENTRAL INDIANA

CITY           SKY/WX    TMP DP  RH WIND       PRES   REMARKS
MUNCIE         CLOUDY    78  67  68 SW9       30.04F
6HR MIN TEMP:  78; 6HR MAX TEMP:  80; 6HR PCP: TRACE;


$$

INZ060-061-067>069-081>083-085>088-130100-
SOUTHWEST INDIANA

CITY           SKY/WX    TMP DP  RH WIND       PRES   REMARKS
EVANSVILLE     SUNNY     83  73  72 SW12      30.06F
6HR MIN TEMP:  73; 6HR MAX TEMP:  85; 6HR PCP:  0.09;

HUNTINGBURG *+ MOSUNNY   82  70  65 SW7       30.07F
6HR MIN TEMP:  79; 6HR MAX TEMP:  86;

WASHINGTON +   PTSUNNY   82  74  77 S6        30.04F
6HR MIN TEMP:  73; 6HR MAX TEMP:  82;


$$

INZ062-063-066-070>080-084-089>092-130100-
SOUTH CENTRAL AND SOUTHEAST INDIANA

CITY           SKY/WX    TMP DP  RH WIND       PRES   REMARKS
BLOOMINGTON    PTSUNNY   79  70  74 SW8       30.06F
6HR MIN TEMP:  73; 6HR MAX TEMP:  82; 6HR PCP: TRACE;


$$



USA.gov is the U.S. government's official web portal to all federal, state and local government web resources and services.